Flag for Norway Weather past 2 weeks in Kleppestø, Norway

Now
47 °F

Cool.


Feels Like: 47 °F
Forecast: 44 / 51 °F
Wind: 2 mph from Southeast

Location: Bergen / Florida

Current Time: May 25, 2015 at 10:06:08 AM

Latest Report: May 25, 2015 at 9:00 AM


Visibility: N/A

Pressure: 29.80 "Hg

Humidity: 81%

Dew point: 42 °F

Location of KleppestøLocation

Historic Weather in Kleppestø — Graph

°F

Kleppestø temperature yesterday

Maximum temperature yesterday: 49 °F (at 3:00 PM)
Minimum temperature yesterday: 40 °F (at 1:00 AM)
Average temperature yesterday: 45 °F

Past Weeks' High & Low Weather Summary

 TemperatureHumidityPressure
High59 °F (May 13, 4:00 PM)89% (May 22, 2:00 AM)30.15 "Hg (May 22, 2:00 AM)
Low38 °F (May 15, 6:00 AM)29% (May 19, 2:00 AM)29.23 "Hg (May 19, 8:00 AM)
Average48 °F69%29.82 "Hg
* Reported May 10 8:00 AM — May 25 8:00 AM, Kleppestø, Weather by CustomWeather, © 2015

Note: Actual official high and low records may vary slightly from our data, if they occured in-between our weather recording intervals... More about our weather records

Advertising

Kleppestø weather history for previous 24 hours

 ConditionsComfort  
Time TempWeatherWind HumidityBarometerVisibility
8:00 AM
Mon, May 25
45 °FCool.2 mph86%29.79 "HgN/A
7:00 AM44 °FQuite cool.2 mph87%29.78 "HgN/A
6:00 AM44 °FQuite cool.3 mph87%29.78 "HgN/A
4:00 AM44 °FQuite cool.2 mph87%29.78 "HgN/A
3:00 AM44 °FQuite cool.2 mph85%29.79 "HgN/A
2:00 AM44 °FQuite cool.2 mph84%29.79 "HgN/A
1:00 AM44 °FQuite cool.3 mph84%29.80 "HgN/A
12:00 AM44 °FQuite cool.3 mph82%29.81 "HgN/A
10:00 PM
Sun, May 24
46 °FCool.2 mph79%29.81 "HgN/A
9:00 PM47 °FCool.3 mph78%29.81 "HgN/A
8:00 PM48 °FOvercast.1 mph76%29.81 "Hg19 mi
7:00 PM49 °FCool.2 mph79%29.81 "HgN/A
6:00 PM47 °FCool.No wind85%29.80 "HgN/A
5:00 PM47 °FRain. Low clouds.1 mph87%29.80 "Hg4 mi
4:00 PM47 °FCool.6 mph87%29.80 "HgN/A
3:00 PM49 °FCool.2 mph87%29.78 "HgN/A
2:00 PM47 °FRain. Overcast.7 mph86%29.78 "Hg1 mi
1:00 PM47 °FCool.8 mph86%29.78 "HgN/A
12:00 PM46 °FCool.7 mph84%29.78 "HgN/A
11:00 AM45 °FLight rain. Overcast.8 mph83%29.80 "Hg17 mi
10:00 AM45 °FCool.8 mph79%29.81 "HgN/A
Weather by CustomWeather, © 2015

See weather overviewHow to use our weather pages